FW8541 Weather Reports


time (UTC)temp
C
wind
direction
speed
KPH
gust
KPH
rain 1hr
cm
rain 24hr
cm
rain mn
cm
humidity
%
barometer
mb
20260507180035 16 271 4.8 14.5 0.00 0.00 0.00 51 1010.3
20260507174532 16 350 3.2 16.1 0.00 0.00 0.00 52 1010.6
20260507173041 16 293 3.2 14.5 0.00 0.00 0.00 48 1010.8
20260507171550 16 316 1.6 9.7 0.00 0.00 0.00 48 1010.9
20260507170038 16 136 1.6 20.9 0.00 0.00 0.00 48 1011.2
20260507164532 16 327 4.8 12.9 0.00 0.00 0.00 48 1011.4
20260507163034 15 344 3.2 14.5 0.00 0.00 0.00 48 1011.6
20260507161533 15 350 6.4 20.9 0.00 0.00 0.00 50 1011.7
20260507160034 15 311 3.2 16.1 0.00 0.00 0.00 52 1011.8
20260507154536 15 352 4.8 14.5 0.00 0.00 0.00 53 1012.0
20260507153030 14 332 3.2 12.9 0.00 0.00 0.00 52 1012.3
20260507151530 14 325 3.2 22.5 0.00 0.00 0.00 58 1012.5
20260507150030 13 5 3.2 17.7 0.00 0.00 0.00 58 1012.6
20260507144547 12 192 3.2 16.1 0.00 0.03 0.00 58 1012.7
20260507143031 12 336 3.2 11.3 0.00 0.03 0.00 59 1012.9
20260507141535 12 331 3.2 8.0 0.00 0.03 0.00 60 1013.0
20260507140031 11 14 3.2 11.3 0.00 0.03 0.00 59 1013.4
20260507134531 11 5 6.4 14.5 0.00 0.15 0.00 60 1013.5
20260507133037 12 328 3.2 8.0 0.00 0.15 0.00 62 1013.5
20260507131532 11 0 0.0 4.8 0.00 0.15 0.00 65 1013.8
20260507130032 11 344 3.2 8.0 0.00 0.15 0.00 64 1013.7
20260507124533 11 294 3.2 12.9 0.00 0.36 0.00 64 1013.7
20260507123033 11 336 3.2 8.0 0.00 0.36 0.00 64 1013.5
20260507121535 11 360 1.6 16.1 0.00 0.36 0.00 66 1013.4
20260507120034 11 338 1.6 6.4 0.00 0.36 0.00 66 1013.4
20260507114532 11 10 3.2 12.9 0.00 0.58 0.00 67 1013.3
20260507113033 11 342 0.0 6.4 0.00 0.58 0.00 70 1013.0
20260507111541 11 0 1.6 8.0 0.00 0.58 0.00 67 1013.1
20260507110034 11 346 3.2 8.0 0.00 0.58 0.00 67 1013.1
20260507104533 11 344 3.2 9.7 0.00 0.58 0.00 69 1013.0
20260507103037 11 0 0.0 8.0 0.00 0.58 0.00 68 1012.7
20260507101538 11 0 1.6 8.0 0.00 0.58 0.00 71 1012.5
20260507100040 11 90 1.6 6.4 0.00 0.58 0.00 74 1012.3
20260507094544 11 318 1.6 9.7 0.00 0.58 0.00 75 1012.0
20260507093042 11 342 4.8 16.1 0.00 0.58 0.00 74 1012.0
20260507091536 11 335 6.4 14.5 0.00 0.58 0.00 74 1011.8
20260507090036 11 347 3.2 9.7 0.00 0.58 0.00 74 1012.0
20260507084539 11 312 4.8 12.9 0.00 0.58 0.00 74 1011.9
20260507083035 11 13 4.8 12.9 0.00 0.58 0.00 74 1011.9
20260507081539 12 352 4.8 12.9 0.00 0.58 0.00 74 1012.0
20260507080040 12 57 6.4 12.9 0.00 0.58 0.00 75 1011.7
20260507074535 12 328 1.6 8.0 0.00 0.58 0.00 75 1011.5
20260507073034 12 315 3.2 8.0 0.00 0.58 0.00 75 1011.4
20260507071535 12 338 3.2 14.5 0.00 0.58 0.00 76 1011.6
20260507070034 12 306 4.8 12.9 0.00 0.58 0.00 76 1011.6
20260507064538 12 41 6.4 16.1 0.00 0.58 0.00 76 1011.6
20260507063035 12 327 8.0 16.1 0.00 0.58 0.00 76 1011.9
20260507061535 12 350 4.8 16.1 0.00 0.58 0.00 76 1012.1
20260507060048 12 352 8.0 19.3 0.00 0.58 0.00 77 1011.9
20260507054544 12 347 6.4 14.5 0.00 0.58 0.00 78 1011.9
20260507053031 12 360 4.8 14.5 0.00 0.58 0.00 77 1011.7
20260507051531 12 0 4.8 9.7 0.00 0.58 0.00 78 1011.9
20260507050031 12 51 3.2 12.9 0.00 0.58 0.00 78 1012.1
20260507044546 12 352 1.6 11.3 0.00 0.58 0.00 79 1011.9
20260507043032 13 360 3.2 16.1 0.00 0.58 0.00 79 1011.3
20260507041532 13 233 4.8 12.9 0.00 0.58 0.00 80 1011.6
20260507040034 13 0 1.6 14.5 0.00 0.58 0.00 80 1011.4
20260507034535 13 13 9.7 20.9 0.00 0.58 0.58 80 1011.8
20260507033033 13 346 3.2 12.9 0.00 0.58 0.58 79 1011.4
20260507031532 14 288 3.2 14.5 0.00 0.58 0.58 79 1011.2
20260507030034 14 352 4.8 17.7 0.00 0.58 0.58 79 1011.3
20260507024542 15 140 4.8 16.1 0.00 0.58 0.58 80 1011.3
20260507023038 15 35 3.2 11.3 0.00 0.58 0.58 80 1010.8
20260507021537 15 304 0.0 6.4 0.00 0.58 0.58 80 1010.9
20260507020042 15 0 0.0 6.4 0.00 0.58 0.58 80 1010.7
20260507014536 16 5 1.6 8.0 0.00 0.58 0.58 80 1010.9
20260507013045 16 241 3.2 8.0 0.00 0.58 0.58 79 1010.6
20260507011532 16 351 4.8 14.5 0.00 0.58 0.58 79 1010.1
20260507010040 16 0 4.8 14.5 0.00 0.58 0.58 78 1010.7
20260507004536 17 352 4.8 16.1 0.00 0.58 0.58 78 1010.7
20260507003033 17 103 4.8 12.9 0.00 0.58 0.58 80 1010.6
20260507001538 17 343 0.0 9.7 0.00 0.58 0.58 79 1010.5
20260507000035 17 0 0.0 24.1 0.00 0.58 0.58 79 1009.9
20260506234534 18 335 6.4 16.1 0.00 0.58 0.58 80 1010.0
20260506233036 18 360 3.2 9.7 0.00 0.58 0.58 83 1009.5
20260506231531 18 9 3.2 12.9 0.00 0.58 0.58 84 1009.2
20260506230033 18 5 6.4 20.9 0.00 0.58 0.58 83 1009.1
20260506224537 19 282 0.0 3.2 0.00 0.58 0.58 85 1008.9
20260506223032 19 0 0.0 3.2 0.00 0.58 0.58 83 1008.9
20260506221534 20 0 0.0 4.8 0.00 0.58 0.58 83 1008.6
20260506220037 19 0 0.0 4.8 0.00 0.58 0.58 86 1008.5
20260506214531 19 0 0.0 0.0 0.00 0.58 0.58 85 1008.6
20260506213033 19 0 0.0 3.2 0.00 0.58 0.58 84 1008.7
20260506211535 19 255 0.0 6.4 0.00 0.58 0.58 82 1008.4
20260506210038 19 0 0.0 3.2 0.00 0.58 0.58 82 1008.2
20260506204534 19 288 1.6 12.9 0.00 0.58 0.58 81 1008.0
20260506203033 20 294 1.6 9.7 0.00 0.58 0.58 80 1008.0
20260506201534 19 300 4.8 12.9 0.00 0.58 0.58 80 1007.9
20260506200034 19 237 3.2 22.5 0.00 0.58 0.58 81 1008.1
20260506194531 20 262 3.2 11.3 0.00 0.58 0.58 81 1008.0
20260506193034 20 219 3.2 19.3 0.00 0.58 0.58 80 1008.1
20260506191536 20 305 3.2 19.3 0.00 0.58 0.58 79 1008.2
20260506190033 20 279 4.8 11.3 0.00 0.58 0.58 79 1008.3
20260506184533 20 317 4.8 14.5 0.00 0.58 0.58 80 1008.3
20260506183034 19 136 4.8 16.1 0.00 0.58 0.58 81 1008.5
20260506181535 19 201 3.2 12.9 0.00 0.58 0.58 82 1008.6